St. Johns, AZ

4:38 PM MST on August 19, 2017 (GMT -0700)
Saint Johns Industrial

Weather History for KSJN - February, 2012

Change the Weather History Date:

Sunday, February 26, 2012

  Actual Average (KLSB) Record (KLSB)
Temperature  
Mean Temperature 42 °F -  
Max Temperature 57 °F 65 °F 69 °F (2014)
Min Temperature 28 °F 29 °F 23 °F (2013)
Degree Days  
Heating Degree Days 22    
Moisture  
Dew Point 14 °F    
Average Humidity 33    
Maximum Humidity 56    
Minimum Humidity 16    
Precipitation  
Precipitation 0.00 in - - ()
Sea Level Pressure  
Sea Level Pressure 29.88 in    
Wind  
Wind Speed 7 mph (West)    
Max Wind Speed 14 mph    
Max Gust Speed 21 mph    
Visibility 10 miles    
Events      
Averages and records for this station are not official NWS values.
T = Trace of Precipitation, MM = Missing Value Source: NWS Daily Summary

Daily Weather History Graph

Daily Weather History Graph

Search for Another Location

Airport or City:

Trip Planner

Search our weather history database for the weather conditions in past years. The results will help you decide how hot, cold, wet, or windy it might be!

Date:

Astronomy

Feb. 26, 2012 Rise Set
Actual Time 6:50 AM MST 6:10 PM MST
Civil Twilight 6:25 AM MST 6:35 PM MST
Nautical Twilight 5:56 AM MST 7:05 PM MST
Astronomical Twilight 5:27 AM MST 7:34 PM MST
Moon 9:02 AM MST (2/26) 10:55 PM MST (2/26)
Length of Visible Light 12h 10m
Length of Day
11h 19m
Waxing Crescent, 21% of the Moon is Illuminated
Feb 26
Waxing Crescent
Feb 29
First Quarter
Mar 8
Full
Mar 14
Last Quarter
Mar 22
New

Hourly Weather History & Observations

Time (MST) Temp. Windchill Dew Point Humidity Pressure Visibility Wind Dir Wind Speed Gust Speed Precip Events Conditions
12:54 AM 41.0 °F 33.5 °F 19.0 °F 41% 29.83 in 10.0 mi SW 13.8 mph - N/A   Clear
1:54 AM 39.0 °F 32.3 °F 19.0 °F 45% 29.85 in 10.0 mi WSW 10.4 mph - N/A   Clear
2:54 AM 36.0 °F 32.1 °F 18.0 °F 48% 29.84 in 10.0 mi SW 4.6 mph - N/A   Clear
3:54 AM 33.1 °F - 16.0 °F 50% 29.85 in 10.0 mi Calm Calm - N/A   Clear
4:54 AM 33.1 °F 28.7 °F 15.1 °F 48% 29.87 in 10.0 mi ESE 4.6 mph - N/A   Clear
5:54 AM 28.9 °F 23.9 °F 15.1 °F 56% 29.91 in 10.0 mi NNE 4.6 mph - N/A   Clear
6:54 AM 30.0 °F - 14.0 °F 51% 29.92 in 10.0 mi Calm Calm - N/A   Clear
7:54 AM 34.0 °F 31.0 °F 14.0 °F 44% 29.94 in 10.0 mi SE 3.5 mph - N/A   Clear
8:54 AM 45.0 °F 42.6 °F 14.0 °F 29% 29.92 in 10.0 mi South 4.6 mph - N/A   Clear
9:54 AM 48.9 °F - 16.0 °F 27% 29.91 in 10.0 mi NNW 6.9 mph - N/A   Clear
10:54 AM 53.1 °F - 16.0 °F 23% 29.89 in 10.0 mi WNW 10.4 mph 20.7 mph N/A   Clear
11:54 AM 55.0 °F - 15.1 °F 21% 29.88 in 10.0 mi West 10.4 mph 20.7 mph N/A   Clear
12:54 PM 57.0 °F - 15.1 °F 19% 29.85 in 10.0 mi West 10.4 mph 20.7 mph N/A   Clear
1:54 PM 57.0 °F - 12.9 °F 18% 29.83 in 10.0 mi North 5.8 mph 16.1 mph N/A   Clear
2:54 PM 57.0 °F - 12.0 °F 17% 29.83 in 10.0 mi NNW 4.6 mph 18.4 mph N/A   Clear
3:54 PM 57.9 °F - 12.0 °F 16% 29.83 in 10.0 mi NNW 9.2 mph - N/A   Clear
4:54 PM 57.0 °F - 10.9 °F 16% 29.84 in 10.0 mi NNW 6.9 mph - N/A   Clear
5:54 PM 53.1 °F - 10.0 °F 18% 29.89 in 10.0 mi NW 6.9 mph - N/A   Clear
6:54 PM 45.0 °F - 10.0 °F 24% 29.93 in 10.0 mi Calm Calm - N/A   Clear
7:54 PM 39.9 °F 37.8 °F 9.0 °F 28% 29.95 in 10.0 mi SSW 3.5 mph - N/A   Partly Cloudy
8:54 PM 37.0 °F 32.4 °F 9.0 °F 31% 29.93 in 10.0 mi SSE 5.8 mph - N/A   Clear
9:54 PM 37.9 °F 35.5 °F 14.0 °F 38% 29.91 in 10.0 mi SE 3.5 mph - N/A   Clear
10:54 PM 39.0 °F 32.8 °F 14.0 °F 36% 29.89 in 10.0 mi South 9.2 mph - N/A   Clear
11:54 PM 35.1 °F 31.0 °F 12.9 °F 40% 29.91 in 10.0 mi NNE 4.6 mph - N/A   Clear